RH
100 100 100 99 99 100 100 97 89 88 91 77 47 30 30 28 28 26 26 26 23 24 21 17 14 11 12 10 9 13 16 19 25 42 39 13 5 6 8 6 11 37 40 50 81 82 76 75 71 72 64 60 59 59 61 62 63 67 76 77 69 64 54 46 39 30 29 30 36 42 40 44 52 53 52 51 53 57 59 57 55 57 54 56 63 68 72 77
100 100 100 98 100 100 99 99 92 89 85 65 41 30 27 26 26 25 25 24 24 24 22 21 15 11 13 10 11 15 23 37 49 55 31 5 8 8 8 6 10 32 38 56 80 74 71 71 69 67 59 61 60 59 64 62 65 69 73 74 65 57 51 44 40 32 29 31 34 39 40 41 47 52 51 53 59 60 61 62 60 63 65 65 69 71 74 77
100 100 99 98 101 100 100 99 95 92 80 59 42 31 27 26 25 24 23 23 24 23 24 23 16 15 12 11 15 14 35 55 48 33 16 10 13 11 13 10 10 21 24 41 62 65 69 68 65 63 58 63 62 62 66 63 67 66 65 71 61 51 48 43 40 37 33 33 34 37 40 41 45 49 50 52 60 61 59 63 63 67 72 70 69 71 75 75
100 100 99 99 101 99 100 97 97 96 78 56 42 32 28 26 24 22 21 22 23 23 25 23 20 20 13 14 16 18 47 51 21 11 16 17 16 13 15 13 12 18 16 22 44 61 68 65 62 59 57 63 63 65 68 63 64 64 66 66 54 47 48 43 40 39 34 32 30 34 41 43 46 48 49 51 59 61 55 56 59 63 69 70 69 69 73 73
99 100 99 100 100 100 100 95 96 87 63 46 38 32 28 25 24 22 22 22 23 24 25 27 27 27 24 21 21 34 47 27 5 9 16 18 16 13 13 13 17 22 22 29 49 62 64 61 59 57 57 61 65 67 67 62 58 63 65 61 53 49 49 44 39 37 32 28 29 36 42 42 46 48 49 51 51 51 49 50 52 57 63 66 68 68 69 70
100 100 99 100 100 100 99 95 89 71 50 39 32 29 25 23 23 24 25 25 26 25 26 33 38 40 36 26 34 52 38 8 6 11 13 19 14 12 13 15 24 30 29 43 61 60 59 60 57 59 59 59 65 65 63 61 58 61 59 57 55 54 54 48 40 37 31 29 31 36 39 40 47 48 47 49 43 39 42 45 50 56 62 64 66 67 66 67
100 100 99 100 100 100 99 93 81 60 44 37 30 27 23 22 24 28 29 28 29 27 28 34 46 55 42 36 52 57 36 13 10 10 12 14 8 10 15 17 27 37 38 48 60 54 56 60 54 56 59 59 62 61 59 58 60 62 58 54 51 49 50 45 39 36 32 31 29 31 37 41 46 46 46 49 41 38 40 43 50 58 63 65 66 66 64 66
100 100 100 100 100 99 96 86 69 50 39 34 29 26 23 24 27 30 27 26 27 27 30 29 49 66 47 50 55 34 28 20 7 8 9 6 8 13 19 29 35 39 43 47 51 49 52 57 51 51 56 55 54 58 57 54 60 65 61 53 48 45 42 38 36 34 33 32 28 29 36 38 40 41 45 48 41 41 43 46 55 62 65 66 66 66 65 66
100 99 99 100 100 98 89 72 54 40 34 31 28 24 23 27 29 29 24 25 25 26 34 31 51 68 50 54 45 11 12 12 5 9 9 8 14 19 23 35 42 40 42 44 46 45 46 50 48 44 49 50 47 51 53 52 52 54 57 52 47 42 36 33 32 32 33 30 27 29 32 32 36 40 43 43 41 44 48 53 59 64 67 67 66 65 65 66
100 100 99 100 100 97 81 58 42 33 30 27 23 21 24 28 28 28 26 25 24 28 38 42 58 68 62 60 33 8 11 9 11 12 12 18 21 32 32 30 41 41 38 41 43 42 40 43 43 39 41 46 45 43 47 49 42 38 44 42 40 36 30 29 28 27 27 25 25 26 26 28 36 42 40 39 43 47 51 58 62 64 67 66 64 64 65 66
100 100 99 99 100 96 74 48 35 29 28 24 19 22 26 27 26 31 36 34 34 39 48 63 74 71 78 72 26 4 11 9 15 17 20 26 27 39 38 32 40 40 37 39 40 38 37 38 39 36 33 37 42 40 40 40 34 31 32 29 28 24 21 20 19 19 18 17 19 20 23 31 41 42 37 40 46 48 53 62 63 64 66 65 64 64 66 66
100 99 99 99 98 89 65 43 33 27 25 20 19 25 25 25 31 40 44 40 41 46 57 78 87 77 75 64 26 6 8 12 19 23 27 29 31 36 32 34 38 36 36 36 38 37 34 38 38 33 26 28 32 32 30 30 29 28 26 25 23 19 19 16 13 14 12 13 16 19 23 33 44 41 37 44 47 47 55 62 64 64 66 66 65 65 66 66
99 99 99 98 94 80 57 40 31 26 24 19 22 25 25 32 41 42 40 42 46 50 67 88 92 86 64 33 18 10 6 16 22 24 32 29 27 28 27 36 35 31 33 32 36 36 35 39 36 29 24 24 26 23 22 23 24 25 23 23 22 20 20 14 12 12 11 15 19 19 19 25 36 37 37 46 48 49 57 61 63 64 65 66 66 65 66 66
97 98 99 98 92 75 51 38 30 26 22 20 24 24 30 44 44 39 38 45 53 56 79 98 92 84 57 18 9 10 4 11 16 16 24 21 15 19 26 33 31 30 32 30 34 36 36 37 32 27 23 22 23 20 20 20 19 21 22 21 20 22 20 13 12 12 11 17 19 17 16 17 24 33 40 47 47 50 56 60 62 63 65 66 66 66 65 65
95 97 98 97 91 70 46 37 31 25 22 22 24 26 41 52 45 42 41 47 61 72 92 101 89 70 41 17 14 15 12 10 10 8 9 11 13 20 31 34 30 29 29 24 27 32 30 31 31 27 23 21 20 20 19 18 16 18 24 25 21 21 20 14 12 12 12 17 20 17 16 16 18 28 41 47 47 49 53 58 60 62 64 65 65 65 65 64
95 94 96 97 90 67 44 34 30 25 23 23 23 32 51 58 56 56 55 60 65 74 87 84 90 78 32 12 18 21 23 16 13 12 7 9 10 16 32 40 36 32 30 23 25 29 24 25 29 25 21 19 19 20 17 15 14 15 21 26 24 21 21 17 12 12 12 17 21 18 16 15 19 28 40 47 47 47 52 58 60 61 63 64 65 64 64 64
92 90 92 93 83 63 42 32 29 26 24 23 24 39 57 67 74 72 68 73 69 75 83 71 84 85 32 9 15 16 19 17 18 20 16 14 9 15 32 42 40 33 29 25 25 26 23 23 24 22 21 18 18 18 16 16 14 15 20 23 23 22 22 20 15 12 14 17 19 20 18 16 23 36 44 48 47 47 52 57 59 60 62 64 64 63 64 65
91 87 87 83 70 55 40 30 31 28 24 22 27 43 58 70 80 81 81 83 81 85 83 70 70 58 24 15 18 14 16 18 19 22 23 19 12 17 28 33 35 31 27 26 24 24 24 23 21 21 22 20 19 17 16 16 13 15 20 22 23 20 19 19 16 11 12 15 15 19 22 19 25 40 47 48 47 47 50 54 57 59 62 64 64 64 63 65
88 86 83 73 55 47 37 29 32 30 25 21 27 40 53 68 77 81 87 77 62 55 48 54 56 33 19 21 19 17 17 17 18 19 24 22 15 16 22 28 31 28 25 25 24 22 22 23 23 24 23 21 20 17 15 14 13 14 17 21 23 22 21 17 14 11 9 12 12 14 19 17 21 37 47 47 48 48 49 53 56 58 61 62 64 63 64 65
80 81 79 64 46 41 33 29 33 31 28 25 27 32 35 46 48 49 60 50 34 29 25 37 46 35 29 25 20 20 16 16 18 18 23 23 16 15 18 25 27 25 23 22 23 22 20 22 24 23 21 21 20 17 15 14 15 17 18 21 22 23 22 16 13 11 9 11 11 12 16 15 18 33 45 46 49 51 50 56 58 58 60 61 62 62 63 65
72 72 67 55 43 38 30 28 33 31 33 31 27 30 30 34 34 32 40 36 27 27 25 26 33 35 31 23 21 21 18 19 18 17 23 22 15 14 16 21 24 24 22 19 22 22 20 22 22 20 19 20 21 19 16 15 15 17 19 20 21 21 20 16 15 13 11 13 14 14 15 14 14 26 41 46 51 52 50 54 57 57 58 59 61 61 61 62
66 65 59 48 42 37 27 26 34 34 36 37 32 33 37 42 45 44 45 41 33 28 27 25 26 27 26 23 24 23 22 23 18 15 19 20 15 14 15 18 20 21 21 20 22 25 25 23 20 18 19 19 20 20 19 16 15 15 15 17 19 19 19 18 16 13 12 13 14 14 13 12 12 21 37 45 49 50 47 48 51 55 58 59 59 60 60 61
61 59 54 45 42 38 26 25 34 36 41 47 45 42 44 50 55 54 50 46 39 30 27 28 26 26 25 24 23 23 24 24 20 14 15 20 18 16 15 16 17 19 22 21 21 26 27 23 19 19 19 19 21 21 20 19 17 15 14 15 16 16 20 21 16 11 11 11 12 13 13 12 15 25 38 43 44 46 46 46 47 51 56 57 56 56 58 61
63 55 50 42 43 40 27 25 34 39 47 54 52 47 49 56 60 60 54 45 37 31 28 26 24 24 23 22 22 23 23 22 20 15 15 20 20 18 15 14 16 18 21 21 19 22 22 18 18 19 19 20 20 20 20 21 19 17 16 15 14 14 18 19 15 12 12 11 10 12 14 14 17 24 32 40 44 46 47 47 49 50 52 53 53 54 56 58
69 55 47 41 45 44 27 26 41 47 47 50 49 49 53 57 63 68 60 44 34 28 25 23 22 21 19 20 21 21 21 21 18 15 17 19 18 19 16 13 14 16 19 21 20 21 19 17 18 20 20 20 20 20 20 19 18 18 17 15 14 15 16 16 14 13 16 18 13 13 18 20 23 25 29 41 48 49 49 49 50 51 51 53 54 55 54 54
72 56 46 43 48 48 31 27 49 54 42 40 44 48 55 58 67 73 57 38 30 23 20 21 21 18 17 19 21 19 20 20 16 15 18 18 17 17 17 15 14 14 17 20 21 20 19 17 17 19 21 20 21 20 18 18 17 17 16 15 15 15 16 16 14 16 21 21 15 14 19 22 24 23 26 40 49 50 51 51 50 50 51 52 52 52 53 52
71 56 46 44 48 56 51 44 56 56 42 41 45 52 60 61 71 72 48 33 30 21 17 19 17 15 15 19 19 18 18 18 17 17 17 18 17 15 17 17 15 14 16 19 21 20 19 18 17 18 20 20 21 19 17 16 17 17 16 14 15 15 16 16 16 19 20 18 16 14 16 20 21 18 22 35 46 51 52 52 51 49 50 50 49 50 50 51
66 56 47 44 46 58 66 67 72 63 48 47 51 57 63 67 74 63 37 28 26 17 15 16 14 13 15 19 19 17 15 14 15 16 15 17 17 15 17 17 15 14 15 17 20 19 18 19 18 18 18 19 18 17 16 16 16 17 15 13 14 15 15 15 16 18 17 18 20 17 14 20 22 19 25 33 39 46 51 51 50 49 49 48 48 48 47 48
61 53 46 45 45 51 61 70 74 62 49 50 53 57 68 76 69 46 30 26 20 14 13 13 12 12 16 21 21 19 16 11 11 14 15 17 17 16 18 17 14 15 15 14 15 16 17 17 16 17 17 17 16 14 14 15 16 14 13 13 13 13 14 14 15 16 17 20 23 19 14 19 22 16 23 34 34 35 40 44 47 47 47 48 47 46 46 47
59 51 44 45 49 53 58 60 56 51 49 49 52 59 71 71 50 34 36 29 17 17 15 13 16 16 17 22 20 19 20 15 11 14 17 17 17 15 15 14 13 14 16 14 14 15 15 15 15 15 15 14 14 14 14 14 14 13 13 13 12 14 15 15 16 16 20 24 22 17 13 17 21 16 17 28 30 27 28 34 42 45 45 47 46 44 44 45
60 50 42 44 50 57 63 55 44 49 50 44 53 63 60 47 31 34 41 24 13 20 19 18 21 19 20 21 17 14 16 15 12 16 19 17 19 17 15 17 16 16 18 17 16 15 15 17 17 15 14 13 13 14 14 13 13 12 13 13 15 19 18 18 20 19 23 25 19 14 13 14 19 19 14 17 21 23 22 24 32 40 44 45 45 43 42 43
62 51 40 40 47 52 58 51 45 52 47 44 62 62 39 31 32 36 34 19 17 24 24 25 24 23 25 22 18 15 13 13 12 16 18 17 19 19 17 19 19 21 24 20 18 17 15 16 16 15 14 13 14 16 15 14 13 13 13 15 19 23 22 22 23 21 22 22 16 12 13 14 16 16 14 14 17 20 20 19 22 30 39 43 44 43 42 42
61 50 38 38 44 46 48 47 49 53 47 51 65 50 29 35 39 32 23 20 26 29 28 28 26 26 27 22 20 18 13 11 12 14 16 16 19 19 17 17 17 20 23 20 19 20 18 16 15 15 15 13 14 16 17 17 15 14 14 17 20 23 24 24 24 22 19 18 14 11 12 15 14 12 12 12 13 17 20 20 19 24 33 40 42 41 40 41
57 49 41 37 41 43 44 47 51 53 54 59 55 39 34 41 37 29 29 30 32 32 30 29 29 27 24 20 21 20 16 14 14 15 14 15 19 20 18 17 16 17 18 19 19 20 22 22 17 15 15 14 13 13 14 16 15 14 13 15 18 20 21 21 20 19 16 15 16 14 14 15 13 14 15 11 9 12 16 19 20 23 28 33 36 38 39 40
53 45 39 36 39 42 44 49 52 54 61 58 44 39 42 39 30 30 40 44 40 38 35 30 29 27 21 19 22 22 20 19 18 16 12 13 17 19 19 17 16 15 16 20 21 19 21 21 15 13 14 13 13 13 11 13 16 15 12 15 18 17 16 16 18 17 15 16 18 17 16 14 14 18 18 13 11 11 13 17 20 22 24 27 31 35 36 37
53 43 37 35 38 43 46 51 54 59 61 49 39 45 43 33 33 41 48 48 45 46 40 29 25 26 25 23 25 25 22 20 21 16 11 14 18 22 23 20 18 19 19 20 20 19 22 19 14 13 14 13 12 12 11 13 16 16 15 16 16 13 13 15 20 22 18 17 19 18 15 13 13 14 13 12 15 14 14 16 17 20 24 26 29 31 33 35
60 59 56 44 39 45 50 52 56 63 60 43 39 50 46 36 41 49 50 44 42 44 42 34 28 28 32 32 29 28 24 21 22 18 13 16 23 29 31 27 24 27 29 26 20 18 20 19 15 14 15 14 12 12 12 11 12 16 17 15 13 13 14 16 21 23 19 17 19 18 14 12 13 14 15 15 15 14 14 15 16 19 23 25 26 29 31 32
73 79 70 49 43 47 49 52 57 63 59 46 44 50 49 46 46 47 46 41 39 44 45 40 32 30 37 38 33 30 26 23 24 23 20 20 26 31 33 32 28 27 31 31 23 16 16 18 15 13 14 14 12 13 15 12 10 13 14 12 13 17 20 23 23 22 20 18 19 19 16 14 12 12 15 17 17 15 15 17 18 17 20 22 23 26 30 31
80 78 54 38 45 47 45 53 60 62 56 50 54 53 48 50 48 44 42 39 39 43 44 41 37 37 40 38 35 32 28 27 27 26 26 26 28 30 31 33 31 29 32 33 25 17 15 18 18 13 11 13 14 15 17 16 12 11 11 11 13 15 19 23 22 18 19 20 19 19 17 15 13 11 10 12 16 17 17 19 20 18 18 21 21 22 27 30
80 73 45 34 48 47 41 48 54 58 56 53 58 56 49 49 46 41 38 37 38 40 43 44 43 44 43 38 35 32 29 30 29 26 28 30 30 30 29 31 33 33 34 31 26 21 17 18 20 16 12 14 16 15 15 16 14 13 13 13 13 13 14 17 17 15 16 19 20 19 17 14 13 13 9 9 13 16 19 21 22 20 18 18 20 22 26 30
78 72 49 36 47 48 41 42 47 53 54 52 53 53 51 49 46 43 38 35 36 36 37 41 42 43 43 39 36 33 32 32 29 28 31 33 34 33 30 30 32 36 38 35 31 30 26 23 21 17 14 15 15 13 12 12 13 13 13 13 13 13 14 16 20 17 12 16 19 18 18 13 12 16 14 10 11 13 17 20 20 20 18 18 20 21 26 31
72 66 48 37 49 53 44 43 49 53 54 53 54 53 50 48 46 45 42 39 39 36 34 35 36 37 39 39 37 35 35 34 33 34 36 36 37 35 31 29 30 35 39 41 39 36 38 36 25 18 16 14 12 12 10 10 11 11 11 12 10 11 14 16 20 19 14 16 17 16 19 15 13 21 19 13 14 13 16 21 20 18 18 19 20 19 23 30
73 69 52 41 48 51 47 48 53 55 56 55 53 49 44 44 46 47 48 48 45 41 39 38 36 37 39 40 39 37 38 38 39 39 38 39 37 34 31 28 31 36 39 41 40 35 39 41 31 23 21 15 10 11 11 10 11 11 11 11 9 11 12 11 19 23 17 16 16 17 21 15 15 28 26 18 19 16 15 21 21 20 20 19 21 23 25 32
78 75 62 52 48 47 50 56 60 60 60 59 56 51 44 42 46 51 55 56 52 50 50 45 40 40 41 41 40 40 40 41 42 38 36 40 37 32 31 28 31 39 39 38 38 34 37 41 34 28 28 23 18 15 13 12 12 12 13 11 10 12 10 9 20 27 19 15 15 17 18 13 18 33 31 21 22 19 15 18 19 22 24 21 22 27 31 36
75 73 66 56 47 46 51 56 61 64 63 64 62 54 49 48 47 49 55 59 57 57 57 51 44 41 41 41 41 40 39 41 43 40 36 38 36 32 32 30 31 38 38 35 35 35 40 46 41 34 31 30 31 30 25 22 21 18 16 13 11 11 10 11 19 24 22 22 19 15 17 14 16 25 25 20 22 22 19 18 19 21 24 24 27 31 35 40
78 74 66 55 48 50 53 51 57 65 67 71 70 59 55 57 51 44 50 59 62 62 60 55 50 48 47 47 46 45 42 39 40 42 41 40 39 34 32 31 32 37 39 35 34 37 42 46 48 47 43 39 43 45 39 34 32 27 22 20 17 13 10 12 17 21 25 27 22 18 19 16 13 16 21 20 19 21 23 21 20 24 27 28 33 37 38 39
82 75 69 69 64 58 56 53 57 67 68 71 75 67 61 62 55 48 50 56 61 63 63 61 61 65 64 59 55 52 47 42 40 43 44 43 41 36 30 31 33 38 39 32 30 36 39 40 44 48 45 40 39 39 34 32 36 33 28 28 23 18 15 12 15 22 27 24 18 22 29 22 14 14 19 23 24 23 25 23 22 26 28 27 31 36 34 34
75 69 67 78 79 71 68 64 64 69 67 67 72 68 63 63 60 59 57 54 55 61 70 73 72 77 78 70 63 58 53 51 50 49 49 48 47 40 32 31 33 34 34 27 27 36 38 39 41 39 36 33 29 29 29 33 36 34 32 31 27 25 23 18 16 19 23 21 18 29 39 28 16 13 12 18 25 20 19 22 22 22 22 22 28 33 29 25
74 72 67 74 80 76 72 70 71 72 67 68 72 68 65 66 63 62 61 61 60 60 69 78 74 74 79 76 73 72 64 59 59 58 57 57 54 46 39 37 33 30 31 28 30 36 37 40 40 34 31 31 27 26 30 33 34 32 31 29 27 27 25 23 21 16 16 18 15 25 39 28 14 12 9 12 21 20 20 24 21 17 18 23 28 29 24 20
80 85 82 82 81 72 68 69 72 72 66 67 71 66 65 67 65 64 63 65 71 67 66 74 72 68 72 73 77 81 71 63 65 63 61 63 60 51 46 42 36 35 35 31 33 35 34 38 39 34 32 31 26 26 29 30 32 32 30 27 26 26 24 23 23 17 17 20 13 18 34 29 17 16 14 17 24 24 22 23 21 22 25 27 28 26 23 23
86 90 93 96 88 74 69 67 67 71 69 67 68 67 67 68 66 69 65 59 67 73 70 72 72 69 69 69 72 74 67 62 64 58 55 60 59 52 49 46 42 44 42 37 38 38 33 33 34 33 35 32 27 28 29 28 28 28 27 25 24 24 23 22 21 18 18 20 18 19 26 24 19 20 19 20 23 22 21 20 20 24 27 27 28 27 29 32
91 92 91 98 94 77 71 69 67 72 71 65 67 69 69 68 65 69 72 62 59 64 63 65 70 72 74 74 70 66 60 57 56 51 48 50 49 47 47 45 44 47 47 43 42 41 37 36 32 31 36 35 27 26 29 30 30 27 23 23 21 19 19 17 17 18 16 16 18 19 18 17 20 20 18 17 17 18 21 22 22 26 29 30 29 26 28 32
Wind_Speed
23 23 23 23 23 23 23 23 23 24 23 23 24 25 25 26 26 26 26 25 24 22 22 22 20 20 20 21 20 21 22 21 20 14 10 23 28 20 16 12 14 22 19 21 27 22 17 16 17 19 14 8 5 6 8 5 4 4 3 3 3 3 2 1 2 1 2 2 5 10 12 10 8 8 6 6 5 8 10 5 5 5 3 8 14 22 28 27
23 23 23 23 23 23 24 23 24 24 24 24 25 26 27 28 28 28 27 26 24 23 23 22 20 19 19 20 19 19 20 19 16 13 22 28 25 21 20 16 17 25 24 25 29 24 19 16 17 18 10 6 6 6 8 6 6 5 3 3 4 3 1 2 3 3 3 4 2 10 13 11 10 10 8 7 6 9 10 6 7 6 8 13 19 25 27 27
24 24 23 23 24 24 24 24 24 25 24 25 26 28 29 30 30 29 27 26 24 24 23 22 20 18 18 18 17 17 16 13 9 13 20 13 7 13 18 19 21 27 25 25 30 27 21 19 20 17 8 6 5 7 8 7 7 6 4 5 5 5 5 5 6 7 6 7 5 10 12 10 10 11 8 8 9 11 11 9 10 10 12 15 20 25 27 28
25 25 24 24 24 24 25 25 25 25 25 27 29 31 32 32 32 29 28 26 25 24 23 22 19 17 15 15 14 13 11 8 6 4 5 5 6 2 9 20 24 27 24 25 30 27 24 22 19 14 8 6 5 7 9 8 6 5 6 7 3 3 6 6 6 6 7 8 6 7 10 10 10 9 9 10 9 9 12 13 14 15 17 19 21 25 27 27
26 25 25 25 25 25 25 26 26 26 28 31 32 34 35 34 33 31 29 26 25 24 22 20 17 15 13 11 10 9 5 4 2 2 8 8 3 8 2 17 27 28 26 26 25 24 24 22 16 11 7 6 8 7 8 11 7 5 9 10 6 4 7 6 3 4 5 6 3 8 10 9 9 9 11 14 11 8 9 14 14 15 19 22 24 25 25 25
26 26 26 26 27 27 27 27 27 28 33 34 35 36 36 36 34 32 29 26 24 22 20 18 15 13 10 7 5 3 2 3 4 1 7 4 8 11 2 17 28 29 29 26 22 21 21 18 14 11 7 6 10 9 6 12 10 6 8 10 10 10 11 8 4 6 6 4 4 7 8 8 10 10 11 16 14 3 4 12 13 13 18 22 24 24 24 24
27 27 27 28 28 28 28 28 28 32 37 37 38 38 38 37 34 31 28 25 23 21 19 17 14 11 8 3 1 1 1 8 14 12 9 13 18 14 4 21 31 32 28 24 21 18 17 18 15 10 9 6 9 10 5 10 13 10 8 8 9 10 13 11 9 10 9 8 7 5 7 11 14 11 10 17 14 4 5 12 15 14 17 20 22 22 22 24
28 28 29 29 29 29 29 30 32 37 40 40 40 40 40 38 33 30 27 26 24 22 19 16 13 9 4 2 2 2 3 14 25 21 20 23 20 9 13 26 34 33 28 26 24 21 18 18 16 10 10 8 6 10 8 6 11 14 11 8 8 10 13 13 12 13 11 10 8 6 10 14 17 11 10 17 13 7 8 12 17 17 18 18 20 21 21 21
29 29 30 30 30 30 31 33 37 40 42 42 42 42 41 36 32 30 28 27 25 23 19 15 11 6 2 3 1 4 7 14 20 16 15 17 11 10 23 29 35 31 25 25 24 24 18 15 17 11 8 9 6 8 11 8 6 11 13 10 10 12 13 13 13 13 10 8 6 9 14 16 14 9 9 15 12 10 12 14 17 18 19 18 18 20 20 20
30 30 31 31 31 31 32 37 41 42 43 43 43 42 39 34 33 32 29 26 24 21 18 13 10 7 5 4 3 5 6 5 6 6 5 6 8 21 26 29 35 28 22 20 20 22 16 13 17 9 4 8 7 6 10 10 4 5 10 12 13 14 14 13 14 13 9 8 9 12 15 13 11 9 10 9 13 14 14 15 17 18 19 19 18 19 19 19
30 31 31 31 32 31 35 40 42 43 43 43 43 40 35 33 34 30 25 22 19 18 15 12 10 11 8 5 5 7 4 2 1 2 2 5 17 25 24 32 36 26 21 17 17 22 16 15 17 7 2 6 8 7 8 10 7 6 7 10 12 12 12 12 14 11 6 7 11 14 11 6 10 11 11 9 16 16 16 17 17 18 17 18 19 18 17 17
30 31 31 32 32 32 37 42 44 43 44 44 41 36 33 34 32 25 20 17 15 14 11 12 13 14 9 3 10 14 6 3 4 7 9 10 17 19 20 34 35 27 27 18 17 23 17 19 20 10 5 7 7 5 6 9 9 10 8 11 11 10 12 11 11 8 6 6 8 11 6 5 11 13 9 13 16 16 17 16 17 17 15 16 17 16 15 17
31 31 31 32 32 35 40 44 44 44 45 43 36 33 33 31 25 18 15 13 12 9 8 13 15 14 8 3 11 18 13 8 8 10 14 13 10 7 15 32 30 28 30 19 19 25 18 21 23 13 7 7 6 2 1 4 6 8 7 7 8 8 9 5 4 4 6 4 8 10 6 6 14 14 12 16 17 18 17 16 16 15 14 15 15 15 16 17
31 31 31 33 34 37 42 45 44 45 45 39 33 33 31 24 16 14 12 9 6 1 10 16 16 12 5 7 7 11 16 14 13 13 15 12 7 2 12 29 26 22 20 8 13 19 15 17 17 9 4 3 2 1 1 1 2 4 4 4 4 5 4 1 2 2 4 4 10 10 8 8 9 13 14 15 19 20 17 17 16 15 14 14 15 15 16 17
31 31 32 33 34 39 44 45 45 46 42 33 32 31 23 14 10 12 12 10 7 9 15 15 14 9 2 10 9 9 14 13 19 27 25 19 13 6 13 27 25 20 13 2 8 15 12 12 9 5 3 1 1 3 4 2 2 2 3 5 4 4 5 2 0 5 7 3 9 10 7 7 3 10 16 16 18 20 17 17 17 16 16 15 14 15 15 16
33 33 33 33 34 40 45 45 45 45 37 31 32 25 13 6 8 12 15 14 12 14 14 9 8 5 3 5 3 4 7 8 13 22 24 23 17 11 15 21 18 15 9 3 9 14 12 11 6 3 3 3 5 5 3 4 5 3 4 6 3 5 5 4 0 3 5 2 7 10 8 7 2 5 13 15 18 19 16 16 18 17 17 16 14 14 14 15
33 34 34 34 36 43 46 45 46 42 32 31 30 16 5 2 5 10 14 14 11 12 7 4 7 4 5 4 3 3 4 7 9 7 13 21 19 15 16 13 9 12 9 5 9 11 9 8 4 2 4 4 5 6 5 8 7 4 4 6 5 5 5 4 2 2 0 2 5 10 11 9 2 4 10 14 17 17 16 16 18 17 16 15 14 14 14 15
34 36 36 37 41 46 46 45 45 37 29 31 25 9 3 1 4 6 8 8 6 5 3 3 7 3 5 5 3 2 1 3 5 3 6 14 19 20 17 10 9 13 11 7 6 6 5 5 4 4 5 7 6 8 9 7 7 7 5 5 5 5 7 8 5 1 2 3 5 7 10 12 6 6 10 13 15 16 16 15 16 16 16 15 14 14 15 16
35 35 38 41 45 48 45 45 43 33 28 28 17 5 4 1 3 1 2 2 2 3 1 4 7 2 2 4 3 4 4 3 4 5 7 12 17 19 14 10 14 15 10 8 7 8 6 3 5 7 8 10 10 12 11 2 4 9 8 8 7 6 8 8 5 2 4 5 7 9 9 12 9 6 10 12 14 14 12 11 12 13 14 14 14 14 15 17
37 37 41 43 47 48 44 45 39 27 26 26 15 4 4 5 3 1 2 5 6 9 8 5 10 7 6 4 2 4 6 4 3 4 9 14 18 16 10 9 11 10 9 9 8 7 7 6 9 11 9 10 11 12 11 3 2 7 8 8 9 8 9 7 4 3 2 5 7 7 8 11 9 5 10 12 13 13 12 12 12 13 14 14 15 16 16 17
39 40 44 45 48 47 43 43 32 23 25 20 14 7 4 7 4 4 8 10 11 12 14 13 14 15 13 8 1 5 5 3 3 2 7 14 18 15 9 10 11 8 8 10 8 6 7 11 13 11 8 8 10 11 11 8 7 7 7 7 7 9 8 5 5 5 3 5 7 7 10 12 9 6 10 12 14 15 15 15 16 17 16 14 16 18 17 14
41 42 45 46 48 45 42 39 25 21 24 15 15 10 6 7 7 7 6 10 12 10 15 17 15 17 18 18 13 2 3 5 7 7 8 13 15 13 10 11 12 9 9 10 7 6 8 12 12 11 8 8 10 11 12 14 12 9 8 7 8 8 6 5 6 6 5 5 7 8 11 12 8 5 10 14 15 15 17 18 18 18 17 15 17 17 16 14
42 44 45 45 47 45 40 32 19 22 24 13 12 10 6 9 12 10 4 7 12 8 12 15 15 15 15 16 14 9 8 10 9 10 12 15 11 9 10 12 13 10 11 13 11 9 9 9 9 13 11 11 11 11 13 13 11 10 9 9 10 7 5 6 3 1 3 4 6 7 9 9 6 4 8 13 14 13 16 18 16 15 16 16 17 15 15 16
43 45 46 46 46 44 38 23 15 26 22 9 10 9 10 15 14 10 3 6 9 7 10 12 11 11 11 8 12 17 13 9 8 9 14 18 9 7 11 13 13 11 11 17 17 13 8 2 9 16 14 16 13 10 13 11 9 12 12 12 11 7 5 4 1 3 5 5 5 6 8 8 5 7 7 9 11 11 13 16 15 14 15 14 14 13 14 16
42 45 45 45 44 44 35 14 13 28 17 7 7 11 19 21 15 8 3 4 6 5 5 7 6 7 8 7 13 16 7 7 11 9 12 18 13 8 8 8 9 12 14 17 15 13 10 3 10 17 16 18 16 11 14 13 9 10 14 15 11 5 5 3 1 4 6 6 2 1 7 6 3 6 6 5 9 12 12 14 16 14 14 14 14 14 16 16
43 45 45 44 43 42 27 6 12 26 11 2 10 21 23 24 18 7 2 2 5 4 2 3 3 5 7 7 10 10 5 6 11 10 10 15 15 7 7 7 4 11 13 12 8 7 7 7 10 15 16 19 17 13 14 14 10 8 9 11 8 5 6 6 5 4 5 6 1 1 7 6 2 5 6 5 9 12 12 14 16 14 14 15 14 14 15 15
43 45 44 43 41 34 15 5 17 21 6 8 24 27 25 24 15 3 3 3 4 2 3 1 0 5 5 6 12 10 4 1 4 13 14 15 14 5 7 10 6 7 8 6 5 5 8 12 11 13 14 16 15 13 13 15 12 6 5 9 10 9 9 9 7 7 6 6 5 5 7 8 8 7 5 6 9 10 13 15 15 16 16 16 16 16 16 16
44 44 43 41 36 23 9 10 17 11 8 20 30 29 27 21 8 3 2 3 2 2 3 1 2 4 2 4 12 7 1 1 2 9 13 17 16 6 9 14 11 11 12 10 9 6 12 16 16 15 13 12 12 11 13 17 13 4 6 9 9 10 11 9 7 8 6 5 9 10 7 7 11 6 5 6 9 10 14 17 17 18 18 17 18 18 18 17
45 44 41 39 29 17 13 14 11 12 21 29 30 30 25 12 2 3 2 3 2 3 2 1 2 1 3 5 11 8 5 2 1 2 9 15 13 5 7 12 11 12 14 16 12 5 8 13 16 16 12 10 11 9 14 18 12 3 8 8 7 7 6 6 6 5 3 5 11 10 9 7 11 8 5 6 8 11 12 13 16 18 18 18 19 19 19 17
44 42 40 36 24 18 20 15 12 21 30 31 31 28 15 3 3 3 4 4 1 3 1 1 2 2 1 5 7 8 8 6 3 4 8 9 9 5 2 5 8 8 10 13 13 4 3 4 10 12 11 11 10 8 12 16 11 7 8 7 6 5 4 3 3 1 3 9 12 12 11 8 10 9 8 7 7 10 10 9 11 15 17 19 18 19 19 18
44 42 39 32 22 19 16 12 18 28 31 32 31 21 5 3 2 4 5 1 3 2 2 2 2 2 1 2 4 5 8 7 1 7 8 7 9 8 5 6 6 6 7 9 11 8 4 4 6 6 9 12 10 8 9 11 12 9 8 8 6 4 2 3 3 3 8 10 7 10 12 11 12 8 6 10 11 11 11 11 12 14 18 18 18 19 19 19
43 41 37 27 17 15 11 14 25 31 32 31 23 9 3 3 4 6 4 3 2 2 4 2 3 5 5 3 3 3 4 4 6 10 10 9 10 11 11 10 9 9 9 10 9 9 9 7 4 3 8 13 12 9 7 8 11 11 9 9 8 5 4 6 6 5 10 6 3 6 10 11 13 7 3 8 11 11 12 12 12 14 17 18 18 20 18 18
43 41 35 21 11 12 16 22 27 28 31 26 12 3 2 5 4 5 5 3 2 5 4 4 8 10 7 3 1 3 3 2 6 10 10 9 9 11 12 10 11 9 5 9 10 7 7 6 6 6 6 12 14 11 8 8 11 13 10 9 9 7 6 9 7 5 7 4 5 6 6 7 9 6 7 13 13 12 13 13 13 13 15 17 18 19 18 18
43 41 34 16 6 13 22 26 26 26 27 17 5 2 4 7 2 0 3 3 5 7 7 9 12 10 6 1 3 3 1 2 1 5 9 9 8 11 10 8 12 8 2 7 9 8 10 7 10 14 8 12 17 14 10 9 10 12 10 8 9 8 7 6 6 5 5 2 4 7 5 6 4 2 6 13 15 15 14 13 13 12 13 14 15 16 18 19
42 41 31 11 7 19 27 27 27 24 16 8 2 2 6 6 3 3 3 6 7 8 11 14 11 6 2 1 3 5 2 2 4 0 8 9 8 9 8 6 11 9 4 7 5 7 13 7 7 16 12 14 18 13 10 12 9 10 9 9 10 7 5 2 2 4 2 1 3 5 4 5 2 2 3 7 10 12 13 12 12 12 12 11 11 14 16 17
42 40 24 8 12 25 29 29 27 18 7 3 2 4 5 2 3 4 6 9 8 9 13 12 5 2 2 0 2 6 4 2 5 1 6 6 2 1 1 0 3 2 2 7 5 5 10 6 6 9 10 15 18 14 13 12 7 6 8 11 8 6 8 6 2 1 1 5 4 5 7 7 4 6 8 9 9 10 12 12 13 13 11 11 10 12 15 16
39 33 16 7 17 28 30 29 22 9 2 2 3 3 3 2 4 6 8 10 10 8 9 6 2 2 3 1 2 7 7 4 4 2 3 3 2 5 6 4 3 6 6 3 4 2 4 5 6 9 12 13 12 14 16 14 10 7 9 10 7 6 7 7 5 3 5 7 4 6 11 10 6 5 4 9 11 11 12 13 14 13 11 11 12 12 14 16
29 22 10 8 22 30 30 24 11 2 2 2 4 3 3 3 5 9 10 12 10 7 5 4 2 4 4 3 3 7 8 4 4 4 1 2 2 4 6 4 3 6 7 4 3 2 3 4 5 11 15 9 8 12 12 11 9 5 6 10 8 5 8 6 5 6 7 8 4 5 9 9 10 7 2 6 11 12 12 12 13 14 12 11 12 13 15 15
18 11 4 12 27 31 25 14 3 2 1 1 2 3 3 5 8 10 11 11 8 7 5 4 3 4 4 5 5 6 6 4 4 3 1 2 2 4 8 5 4 8 8 4 3 1 3 5 5 6 9 9 9 10 10 10 7 2 5 9 6 4 6 7 5 4 5 7 5 4 6 7 9 9 7 9 9 10 11 10 11 13 13 11 11 12 13 13
10 4 3 18 32 30 19 5 0 1 1 1 2 3 5 7 8 10 11 10 7 5 5 5 6 5 5 7 6 5 4 4 5 3 2 4 2 5 10 8 6 11 10 3 3 1 1 6 5 2 6 9 9 9 11 13 10 6 7 10 7 3 3 5 5 4 5 6 5 5 6 4 3 6 11 14 12 10 10 10 10 11 13 13 11 11 11 12
7 1 4 20 33 30 16 4 2 4 2 2 4 5 7 7 8 10 10 9 6 4 5 7 8 6 6 7 5 3 4 4 4 3 2 3 3 4 8 10 8 11 8 1 2 3 0 4 4 4 6 7 7 10 16 17 16 14 11 10 11 8 5 6 7 6 6 6 4 5 8 5 3 4 9 12 12 11 11 11 10 11 13 13 12 10 9 10
5 3 7 20 31 27 12 4 4 4 1 4 6 7 8 7 7 9 9 9 7 4 4 6 7 6 4 4 3 3 3 3 3 2 2 4 6 4 8 12 11 9 5 2 3 3 2 1 3 5 4 3 5 9 13 12 12 14 12 11 13 11 9 9 8 6 7 5 2 3 8 5 3 5 7 9 10 10 9 9 9 10 11 11 11 10 8 7
4 6 12 20 27 20 6 4 5 4 3 6 8 8 8 6 7 8 7 8 8 5 4 4 6 6 4 3 4 3 3 3 3 3 3 4 6 5 9 12 12 9 5 3 3 3 2 1 4 4 1 1 2 5 6 4 5 10 11 11 12 12 13 12 6 4 6 7 5 5 8 4 3 3 5 5 6 7 6 6 8 9 8 8 10 9 7 6
5 6 8 15 23 14 3 5 6 4 5 9 9 8 7 6 8 8 7 7 8 7 6 5 7 6 5 5 4 4 4 2 3 5 4 3 4 6 11 13 12 9 6 5 6 3 1 0 3 5 5 5 6 8 7 4 4 7 8 11 13 14 17 15 5 2 6 11 12 9 8 4 2 1 2 4 4 6 6 6 7 7 7 6 6 6 6 6
6 3 4 9 15 9 5 5 5 4 7 10 10 8 8 7 8 9 9 7 7 8 7 6 7 6 7 7 3 4 6 3 2 4 4 4 4 5 11 12 10 9 8 9 10 4 1 1 1 5 9 10 8 7 6 3 2 3 4 9 14 17 20 15 5 4 8 9 12 12 7 1 2 1 3 4 4 6 8 7 4 5 7 6 5 5 5 5
5 3 3 6 6 5 3 4 5 5 7 9 8 6 8 9 8 9 10 7 8 10 8 6 9 8 8 10 6 4 6 4 3 3 4 4 3 4 9 10 7 9 10 12 12 5 1 1 2 1 1 2 2 2 2 3 2 3 4 5 8 14 19 16 8 8 6 5 9 13 8 4 3 4 2 4 5 6 8 7 5 5 6 6 5 4 4 4
2 3 6 5 3 4 3 3 7 7 7 8 6 4 8 10 8 8 8 6 8 10 7 5 11 10 9 11 7 4 6 5 3 4 4 5 3 4 8 6 4 10 11 11 11 5 0 2 3 4 4 3 4 6 5 4 5 6 7 8 7 8 14 17 14 8 7 6 12 11 7 8 8 4 3 4 5 6 7 7 7 4 4 5 4 3 5 6
3 3 5 3 2 4 5 6 9 9 9 9 4 4 8 10 9 9 7 6 8 8 5 4 10 10 10 11 7 5 7 4 2 4 6 6 5 6 6 3 4 10 11 8 8 5 1 1 3 3 4 4 6 8 6 4 6 7 8 11 11 9 11 14 15 10 10 10 13 6 8 11 11 9 9 6 4 6 7 6 5 4 4 4 3 4 6 6
3 3 3 3 3 6 8 9 10 10 10 9 4 3 8 10 10 10 7 7 8 6 5 5 9 10 9 9 7 5 6 4 2 4 6 8 8 5 4 2 2 8 11 8 6 4 2 0 3 5 6 5 7 8 6 3 5 8 9 12 13 13 12 11 12 13 13 14 16 9 9 12 12 12 14 10 6 5 5 4 4 5 5 4 3 4 5 6
3 3 3 4 4 6 7 7 8 8 8 7 4 5 8 10 11 11 8 7 7 4 6 8 10 10 8 8 6 4 6 6 5 5 6 8 7 4 3 2 2 6 9 6 5 5 3 1 3 5 6 5 6 7 6 6 7 10 11 12 12 12 13 12 11 13 13 13 16 14 9 10 8 7 9 7 3 2 4 6 6 6 4 2 2 4 6 6
3 3 3 4 5 6 6 6 6 7 6 4 5 7 8 9 11 12 10 7 6 3 7 10 11 10 7 6 6 5 6 8 8 8 8 8 6 5 4 3 4 6 6 4 3 4 3 2 2 4 5 5 4 5 9 12 12 12 13 13 14 13 13 11 9 10 11 11 13 14 11 8 4 4 7 6 3 5 8 8 7 5 4 3 4 6 6 7
4 3 2 3 4 4 5 6 6 6 4 4 6 9 9 10 10 11 8 4 3 4 7 9 10 8 6 6 6 7 9 11 12 11 10 9 10 9 9 9 9 7 3 3 3 2 3 3 2 3 4 4 5 6 9 11 10 10 9 9 12 14 14 13 11 12 13 11 11 11 9 7 4 6 9 9 8 10 10 9 8 7 6 6 7 8 7 6
Wind_Direction
354 353 352 350 348 347 345 344 342 340 338 338 342 344 343 342 340 338 335 332 331 330 328 327 326 325 321 320 320 319 319 317 311 306 259 258 267 254 244 248 190 174 170 150 141 142 148 156 153 154 154 151 168 160 169 189 171 184 212 242 253 244 260 215 218 300 358 16 166 176 180 177 157 154 135 123 131 138 159 168 143 137 88 129 135 143 151 155
353 352 351 349 346 346 344 342 340 338 338 338 342 344 343 341 338 335 333 330 328 326 324 324 323 322 319 319 319 320 322 317 307 279 263 267 272 265 247 233 195 178 172 154 150 153 156 163 157 157 160 150 166 163 169 182 179 192 201 230 241 227 237 230 252 279 315 352 187 191 189 186 172 157 159 168 154 151 167 173 158 135 113 126 138 147 152 157
352 351 350 348 346 344 343 341 339 338 338 339 341 343 342 340 336 333 330 327 325 322 320 319 319 319 316 317 319 321 322 316 297 264 269 272 258 253 233 214 196 186 183 170 165 163 157 158 157 158 160 154 165 171 179 185 187 201 214 233 243 240 258 256 257 267 282 308 270 204 191 191 173 154 170 179 162 173 188 179 172 167 146 144 150 153 156 161
352 350 349 347 344 343 341 340 338 336 337 339 341 342 340 338 334 330 327 324 321 318 315 314 315 315 314 318 319 321 324 300 270 234 215 142 97 63 202 202 194 190 191 182 174 163 151 151 156 160 161 167 170 174 190 191 184 193 212 235 242 226 258 257 256 268 280 294 271 202 184 192 171 159 176 165 160 196 208 193 185 176 160 155 159 159 161 165
351 349 348 345 343 342 340 339 337 336 339 341 342 341 339 336 333 328 325 321 317 315 312 311 311 311 313 319 318 323 326 281 278 156 162 155 23 12 190 196 189 187 184 176 167 155 149 152 155 160 168 173 171 182 204 199 195 210 221 241 248 251 274 273 273 275 293 312 247 182 186 184 162 175 183 172 186 213 207 196 189 174 161 161 163 163 165 168
350 348 346 344 343 340 339 338 336 338 341 342 342 341 338 335 331 327 323 319 316 313 310 308 308 307 309 320 323 319 257 265 335 289 177 193 315 335 296 188 181 180 177 165 153 151 152 154 157 165 180 181 182 192 197 195 204 230 233 241 245 251 265 271 283 278 289 296 204 183 186 165 166 198 192 191 206 189 151 180 176 169 163 160 162 165 168 171
349 347 345 343 342 340 339 338 337 340 341 342 342 340 337 334 330 326 322 318 314 309 306 303 302 299 306 346 116 171 229 264 270 260 259 284 299 308 222 178 176 176 172 156 148 157 154 160 171 168 175 182 194 200 185 192 205 228 244 244 246 249 255 266 276 275 274 259 247 210 183 177 191 204 189 205 213 113 111 165 157 152 157 159 163 171 173 173
348 346 344 343 342 340 339 338 339 341 341 342 341 338 336 332 328 325 320 314 309 305 300 294 292 290 293 128 169 249 225 255 263 270 280 281 290 282 175 168 174 172 167 161 158 163 157 166 176 164 181 187 185 196 196 200 205 224 243 252 258 259 260 267 268 266 263 256 256 226 207 204 202 191 188 210 205 131 126 146 143 145 154 164 170 173 175 175
347 346 344 342 341 340 339 340 342 342 342 341 339 337 334 331 328 323 316 308 303 298 291 282 275 262 201 155 200 268 243 262 270 280 285 273 270 186 164 164 173 171 165 167 163 163 160 170 176 168 186 185 173 186 196 211 210 217 231 247 256 262 267 270 269 263 255 252 235 220 228 223 200 178 212 214 182 137 133 139 143 149 158 169 174 175 178 179
346 345 344 343 341 339 339 343 344 343 342 340 337 335 333 331 327 320 313 304 298 291 279 264 248 209 180 176 199 247 256 289 279 276 282 251 176 162 163 165 171 169 163 165 166 167 166 172 172 163 168 180 190 190 191 206 219 215 225 243 252 261 270 269 271 265 255 253 223 220 239 227 181 183 231 198 155 142 138 147 152 155 163 171 177 179 181 183
346 345 344 343 341 339 341 344 345 343 341 339 336 335 334 331 325 319 313 305 295 285 266 240 213 186 183 183 202 232 249 268 244 71 92 159 156 161 167 168 168 167 160 159 172 176 175 169 161 156 161 171 188 203 214 216 235 254 254 265 261 264 269 260 265 265 246 253 220 216 241 203 162 207 227 156 147 154 147 153 160 163 167 171 177 181 183 187
346 345 343 342 341 340 343 345 345 343 340 337 336 336 335 329 324 321 315 306 294 282 251 212 189 175 166 175 228 232 230 203 164 121 130 143 152 164 173 169 169 168 161 159 179 184 183 167 162 175 168 149 167 191 227 220 232 250 261 277 278 281 278 257 257 249 215 240 199 193 237 182 181 216 198 146 153 158 153 158 164 168 168 170 176 181 185 188
346 345 343 342 342 342 345 346 345 342 339 337 336 338 335 329 328 329 323 311 295 276 213 182 171 168 167 216 239 238 233 191 157 141 144 143 143 167 178 173 174 174 169 167 180 186 185 169 171 183 168 160 168 133 214 198 219 237 240 260 277 287 283 259 244 227 208 216 159 171 261 230 200 206 168 150 160 157 157 164 167 171 170 172 176 181 188 188
346 345 344 342 342 343 346 346 344 341 338 337 338 339 334 331 340 349 346 335 320 239 165 164 160 157 184 250 255 258 249 223 211 207 188 190 206 219 184 180 180 182 180 175 178 182 178 173 178 182 174 181 152 68 254 183 196 231 244 238 254 264 254 106 94 189 209 186 164 184 271 271 202 187 169 158 163 162 164 169 169 174 172 174 178 182 189 190
347 346 344 343 342 344 347 346 344 340 338 339 339 339 334 334 7 22 29 37 50 112 138 146 157 157 232 266 263 268 254 233 230 231 226 225 217 190 187 187 188 188 186 181 180 177 163 168 185 188 187 210 221 248 243 247 233 221 249 231 212 233 248 314 112 222 242 214 182 200 262 280 210 173 175 167 169 168 169 172 171 175 174 176 180 183 189 192
347 347 345 343 342 345 348 346 343 340 340 341 339 338 332 340 38 49 55 63 77 109 126 138 165 188 278 275 247 231 225 215 230 236 231 223 211 191 179 178 181 187 185 128 156 163 158 163 180 213 204 202 213 222 231 245 234 198 228 242 220 228 265 307 112 210 246 195 192 213 253 284 327 165 176 170 175 174 170 174 174 176 176 177 181 184 188 190
348 348 346 344 343 346 348 346 344 342 342 343 340 340 336 350 77 67 70 78 87 99 105 157 169 200 270 253 213 213 211 214 223 233 225 216 208 180 156 154 163 173 168 124 129 141 156 171 169 203 211 213 200 190 212 227 222 195 204 240 248 245 267 270 224 97 208 212 217 224 241 267 302 137 176 177 180 179 176 178 177 177 178 179 182 184 187 190
349 348 348 346 346 347 348 347 345 343 344 345 343 346 356 164 130 77 84 86 83 101 70 153 179 215 252 235 240 243 217 220 218 210 205 200 191 171 150 141 150 152 151 146 151 152 165 183 181 196 198 203 195 190 209 215 204 197 192 220 241 234 242 251 248 25 9 283 261 237 238 256 251 149 175 188 185 188 187 181 178 177 178 180 184 187 188 192
347 348 348 347 348 348 348 348 345 344 347 348 349 0 21 10 210 183 149 104 81 209 234 154 192 249 291 248 279 293 291 298 262 226 181 167 175 171 148 131 144 150 155 163 177 180 176 166 187 212 208 199 198 200 208 182 167 198 203 224 239 234 237 250 261 305 333 301 274 259 250 260 256 177 178 192 189 197 194 180 180 180 181 183 187 191 191 195
348 348 347 348 349 348 348 348 345 347 351 353 360 8 21 3 283 245 287 263 236 241 270 233 215 261 306 290 304 318 305 285 255 207 170 163 163 163 149 133 147 163 173 167 162 167 177 198 208 213 207 190 191 200 207 198 157 189 195 219 234 243 247 254 272 282 319 293 274 270 269 272 269 200 184 191 190 198 195 184 187 186 186 188 191 195 195 198
348 348 348 349 349 347 347 347 346 350 354 5 28 36 47 23 352 323 324 287 250 231 251 245 224 242 258 258 294 32 8 292 261 222 176 166 155 158 167 156 162 186 181 154 136 139 182 217 220 204 188 177 186 197 202 211 213 202 200 215 228 236 245 257 278 281 285 281 276 282 284 281 276 225 189 185 189 199 198 192 193 192 192 192 194 197 198 196
349 349 349 350 349 346 347 347 349 354 358 33 61 62 82 35 350 310 309 294 275 221 231 243 232 242 247 249 255 293 341 274 264 249 185 164 167 171 173 172 180 181 162 148 137 156 201 228 213 173 162 172 185 194 198 209 218 222 222 228 238 235 247 265 264 266 257 261 276 285 284 282 284 244 196 189 193 200 201 198 197 194 192 194 196 196 194 190
349 349 349 350 348 345 346 347 355 1 4 43 68 70 68 1 343 322 281 280 285 229 220 233 225 236 236 242 237 202 227 232 238 245 181 168 189 182 169 180 186 166 158 179 186 183 205 232 189 156 165 183 186 191 196 206 215 223 222 222 236 221 215 248 233 207 231 238 275 295 290 281 279 247 208 202 203 203 203 203 202 197 196 199 198 195 191 190
349 350 350 350 348 344 345 346 0 5 8 67 88 58 4 341 347 342 276 259 283 248 229 219 209 231 228 220 186 181 210 207 206 230 176 171 177 159 179 183 177 174 177 191 198 201 210 201 155 162 175 191 195 189 191 205 213 219 221 223 234 214 191 238 281 328 282 246 250 283 291 278 245 236 227 204 205 211 206 204 205 202 202 203 199 197 196 196
349 349 349 350 347 343 344 349 7 1 2 110 88 4 343 338 345 344 281 264 276 261 239 205 199 229 206 166 166 174 197 209 213 210 165 176 174 148 180 179 176 193 190 187 196 217 219 138 149 171 178 191 202 200 195 203 213 220 222 223 229 203 170 190 234 299 283 261 231 255 279 271 206 236 242 182 197 213 208 206 210 206 204 204 200 200 200 200
348 349 349 349 347 344 348 2 352 352 357 119 346 337 334 334 338 331 254 280 270 247 163 169 196 194 169 152 162 158 162 221 216 190 167 184 181 156 170 165 197 206 183 175 195 236 208 150 156 179 184 189 201 212 199 194 215 230 210 204 205 184 181 196 211 246 264 271 292 147 264 273 263 246 234 186 202 213 211 211 212 210 207 205 205 204 201 199
348 348 349 348 347 348 357 335 335 351 8 317 328 330 329 330 335 316 229 280 261 192 133 147 250 169 165 168 169 158 162 231 167 178 189 188 178 181 190 172 187 199 151 143 211 217 166 158 166 181 189 193 203 212 188 184 216 234 149 160 180 193 207 209 222 244 255 276 276 242 250 277 277 250 193 184 207 214 217 216 213 212 211 208 208 208 204 202
346 347 349 347 347 352 354 323 329 344 329 321 326 327 327 329 329 210 254 299 247 116 107 111 113 145 106 162 184 194 288 13 133 184 189 185 179 187 205 191 185 177 153 167 206 174 157 177 180 178 188 200 207 199 167 181 215 217 130 157 179 195 210 207 219 243 245 261 262 239 215 251 269 248 142 173 210 221 222 217 213 213 211 209 210 209 207 205
345 346 348 347 347 358 352 332 321 323 329 330 330 328 327 323 270 200 264 277 227 80 66 155 129 120 55 137 204 253 314 347 352 164 170 183 190 198 213 197 177 165 168 192 210 161 155 192 186 178 190 204 205 183 164 186 209 164 132 145 151 168 179 186 214 237 220 237 251 234 195 224 267 252 174 173 212 224 225 218 213 211 208 206 207 208 207 205
344 344 347 347 347 350 346 335 327 334 337 336 332 330 324 264 198 207 214 241 321 48 22 108 80 303 87 143 216 253 258 276 354 129 163 179 191 204 188 146 153 163 178 209 223 195 102 177 180 183 200 203 193 174 176 191 188 145 152 161 154 155 136 158 203 209 238 246 245 229 203 214 266 256 197 186 210 214 218 221 212 208 207 206 205 207 206 203
343 343 345 346 342 340 337 326 336 341 340 338 335 330 304 193 228 220 201 255 349 18 14 40 42 324 315 207 241 230 226 254 264 151 169 172 179 186 156 137 159 174 184 213 224 219 201 166 169 188 204 194 179 177 190 188 175 169 191 199 197 191 183 217 192 183 242 251 231 214 202 207 245 252 184 193 206 201 212 222 210 203 205 204 204 206 206 204
342 341 343 345 337 333 328 324 339 343 340 338 335 322 225 202 228 221 244 321 319 14 17 352 340 342 329 289 252 236 223 220 176 169 176 182 181 183 183 179 173 178 196 202 199 208 213 199 172 182 199 191 182 187 190 176 180 195 203 197 203 201 195 219 206 204 240 242 139 179 193 210 239 257 203 205 208 206 216 224 215 204 201 201 204 205 205 205
341 340 342 345 336 333 336 338 342 341 339 337 327 295 227 230 223 218 258 310 16 7 354 314 320 317 295 278 303 280 255 180 178 183 183 188 189 190 198 194 181 186 203 190 185 190 203 214 206 195 195 191 189 189 187 177 186 199 198 188 197 196 198 214 205 213 245 219 120 134 171 230 255 256 221 213 214 214 215 221 221 207 197 199 202 201 202 203
340 341 341 342 345 348 347 343 341 338 334 330 310 263 215 222 262 294 267 333 359 346 332 322 320 304 264 234 18 351 300 104 127 185 182 184 192 195 199 195 192 198 121 171 193 194 199 217 202 197 188 174 191 203 188 165 179 198 194 190 205 205 204 212 197 214 246 210 132 138 167 226 236 198 204 210 215 215 212 216 218 212 202 199 199 198 200 203
339 342 341 342 356 353 348 340 337 337 329 315 297 252 217 224 322 15 11 354 348 341 328 318 309 288 248 147 31 13 36 76 34 171 191 188 192 196 197 191 194 198 175 182 192 194 211 228 180 191 182 164 189 206 168 150 178 196 179 195 220 206 187 220 220 218 260 297 171 173 218 247 237 304 265 232 231 225 222 222 217 221 214 197 195 197 200 205
339 342 344 356 353 347 345 338 334 333 322 307 291 245 241 284 356 10 8 355 342 333 324 316 302 268 309 88 28 11 9 0 10 341 190 175 155 174 334 11 181 195 205 199 185 168 211 221 137 162 176 180 192 184 164 171 180 168 181 203 207 169 184 227 245 153 251 259 213 188 241 262 268 270 243 220 232 231 228 228 224 228 214 190 194 200 202 205
340 339 334 331 346 346 343 338 333 321 281 268 247 249 277 327 18 15 1 348 330 318 317 321 352 349 338 358 2 357 347 330 358 358 174 144 60 11 350 342 16 22 10 262 215 151 209 215 137 150 184 197 189 170 175 185 160 145 195 190 134 134 200 228 237 209 223 247 235 194 232 247 245 254 213 196 214 221 223 222 223 230 219 200 202 204 204 205
335 329 309 322 347 347 344 342 336 242 194 242 242 266 306 305 347 2 354 343 328 318 316 301 330 9 2 351 350 348 338 328 4 6 89 114 54 18 353 318 337 8 357 313 253 165 214 225 169 179 192 178 150 170 183 183 170 170 187 163 138 176 195 187 216 230 220 236 251 208 224 240 233 228 207 199 210 216 220 218 220 227 224 215 210 208 207 202
333 321 300 351 353 350 349 350 353 174 192 279 257 281 331 321 327 343 344 339 330 320 319 300 322 358 349 339 342 340 338 346 352 347 33 31 43 44 17 340 298 333 335 290 239 165 201 217 203 196 185 154 154 187 191 183 191 193 151 163 174 211 189 176 197 216 209 227 250 229 223 237 226 214 222 235 231 228 227 221 221 225 224 222 215 209 204 196
338 311 315 354 355 353 356 2 67 43 55 0 335 323 341 329 320 336 342 340 332 309 311 318 321 322 319 327 329 324 335 346 339 341 33 20 71 77 24 360 313 325 329 262 220 350 198 210 215 150 145 160 173 194 195 189 190 187 181 186 186 179 180 189 198 206 215 224 232 244 250 242 186 186 210 222 227 233 231 226 227 228 228 230 224 213 200 192
331 307 325 353 356 352 357 37 33 14 33 13 1 334 331 327 322 336 341 341 334 296 300 309 302 297 299 307 312 320 327 314 314 342 38 27 50 67 16 355 325 319 323 277 101 14 322 203 208 180 172 187 183 189 201 201 194 194 197 194 189 185 177 189 206 206 211 227 217 240 265 258 143 165 206 213 218 224 223 221 225 229 231 232 231 226 208 195
339 331 314 349 357 348 348 60 27 5 31 0 349 318 313 318 322 332 340 343 340 317 310 306 301 308 305 301 310 326 335 322 314 345 69 62 48 31 357 344 329 323 336 40 68 22 0 167 204 205 198 198 184 197 214 218 208 206 206 197 194 193 185 198 215 191 188 220 213 240 272 272 142 167 199 208 217 224 224 221 225 232 235 237 241 239 225 210
350 315 307 344 357 344 335 60 15 4 17 348 337 318 313 325 334 341 346 343 346 345 332 321 328 341 351 341 330 330 343 352 20 48 75 85 65 14 346 344 341 347 10 29 27 9 348 188 202 209 214 289 231 227 238 254 234 222 216 204 201 198 197 209 220 168 182 202 186 220 253 244 134 173 211 215 224 234 237 227 229 238 242 243 247 248 236 221
328 299 295 345 358 352 19 48 4 350 354 342 336 336 340 348 347 348 343 338 352 354 335 337 345 344 343 333 336 16 6 350 63 59 52 66 58 1 344 349 354 5 26 18 356 336 310 226 191 195 196 208 221 224 220 202 202 226 225 214 209 203 205 212 200 130 213 206 195 217 240 217 106 44 244 245 251 255 254 235 229 244 251 245 248 254 246 230
326 297 263 335 357 12 61 51 5 351 355 346 337 341 353 353 348 350 343 341 4 356 331 340 347 342 349 343 344 41 21 3 48 56 65 53 36 359 344 343 354 12 18 4 353 335 284 3 228 210 206 205 207 213 218 205 196 241 245 223 215 208 209 212 189 188 217 200 196 219 234 174 96 122 224 242 251 260 260 251 234 249 262 258 246 244 244 234
335 335 321 332 358 26 59 50 16 3 357 348 335 335 350 349 347 352 348 354 14 354 330 355 5 357 3 359 353 22 16 9 24 50 67 41 24 350 334 330 353 13 7 360 354 343 212 40 31 24 212 208 228 250 288 328 291 263 283 267 238 220 214 212 208 211 198 166 210 226 229 231 193 158 186 228 232 248 260 264 257 245 250 254 250 250 256 253
333 333 345 344 342 356 8 23 11 0 349 343 326 317 341 346 345 353 354 358 6 348 325 19 28 15 5 0 353 352 354 356 28 42 35 27 21 341 329 326 8 11 7 2 355 349 44 55 61 57 40 11 320 301 297 297 272 264 281 285 277 250 226 219 219 205 145 178 232 223 202 232 230 203 225 229 226 248 257 262 265 258 247 247 246 249 248 247
340 328 347 356 333 340 343 339 341 338 333 331 317 309 336 345 348 353 355 341 344 347 334 19 30 16 354 351 348 343 348 358 48 32 19 13 0 346 351 27 42 13 9 6 3 5 332 31 60 22 353 335 305 296 290 274 259 259 267 269 273 275 255 238 233 212 170 206 242 209 165 222 234 228 240 238 228 248 253 261 274 284 272 244 224 237 246 248
335 313 335 3 330 319 317 314 320 326 328 326 319 335 341 343 344 347 348 330 327 349 6 6 11 4 343 341 351 353 349 352 14 21 16 2 349 342 352 21 51 19 9 4 12 9 312 334 44 348 325 316 305 299 297 289 273 270 268 265 266 269 265 259 252 240 222 229 245 226 186 218 230 226 232 229 221 246 267 291 279 257 251 231 206 239 251 252
342 323 326 332 317 311 311 313 319 324 328 322 324 352 346 339 340 339 335 316 298 330 20 2 349 346 331 329 339 333 337 342 330 332 345 341 338 341 350 357 19 11 5 3 8 359 335 353 19 343 318 301 305 307 303 306 301 287 274 262 259 260 259 254 249 249 243 239 245 242 224 222 224 229 238 228 191 225 251 258 255 246 251 249 226 248 254 256
296 280 296 312 316 316 316 323 327 322 323 327 338 348 341 332 336 335 326 304 263 297 10 350 331 331 325 321 322 308 321 329 309 299 306 303 295 302 311 314 327 343 359 5 355 350 334 325 351 336 304 285 303 320 317 319 310 284 267 258 251 248 250 248 239 240 239 235 242 245 243 242 222 227 251 244 215 233 239 244 250 248 249 249 244 248 248 250
293 264 259 287 303 309 311 319 321 315 319 332 330 330 324 318 327 331 328 316 280 320 345 330 317 319 311 310 322 320 319 314 300 294 292 277 268 274 274 273 282 291 297 312 324 325 295 291 309 304 286 286 303 317 323 322 302 270 257 254 250 248 250 251 244 239 236 233 237 238 244 259 237 220 241 243 231 235 239 239 241 239 235 233 238 245 245 246